Regional Weather Roundup
Issued by NWS

Home | Current Version | Previous Version | Graphics & Text | Print | Product List | Glossary Off
Versions: 1 2 3 4 5 6 7 8 9 10 11 12 13 14 15 16 17 18 19 20 21 22 23 24 25 26 27 28 29 30 31 32 33 34 35 36 37 38 39 40 41 42 43 44 45 46 47 48 49 50

547
ASUS43 KMPX 101401
RWRMN
WEATHER ROUNDUP FOR MINNESOTA
NATIONAL WEATHER SERVICE TWIN CITIES/CHANHASSEN MN
800 AM CST SAT DEC 10 2016


NOTE: "FAIR" INDICATES FEW OR NO CLOUDS BELOW 12,000 FEET WITH NO
SIGNIFICANT WEATHER AND/OR OBSTRUCTIONS TO VISIBILITY. N/A MEANS
CURRENT SKY AND/OR WEATHER CONDITIONS ARE NOT AVAILABLE.

MNZ060>063-068>070-101500-
   Twin Cities Metro

CITY           SKY/WX    TMP DP  RH WIND       PRES   REMARKS
TWIN CITIES    CLOUDY     5  -1  76 NW3       30.50F
ST PAUL        CLOUDY     6   2  83 W3        30.52F FOG
CRYSTAL        CLEAR      3  -2  79 CALM      30.49F
BLAINE         PTCLDY     5   1  85 W6        30.49S WCI  -6
LAKEVILLE        N/A      1   0  92 CALM      30.48F
EDEN PRAIRIE   CLOUDY     5   0  79 CALM      30.48F
SOUTH ST PAUL  CLOUDY     6   1  80 CALM      30.50F
LAKE ELMO      FAIR       5   1  85 W5        30.50S WCI  -4
$$
MNZ001>005-007-008-013>017-022>024-027-028-101500-
   Northwest Minnesota

CITY           SKY/WX    TMP DP  RH WIND       PRES   REMARKS
BEMIDJI        CLOUDY   -12 -16  83 CALM      30.41F
HALLOCK        CLOUDY   -13 -18  77 CALM      30.48F
ROSEAU         PTCLDY   -11 -17  77 W3        30.45S
WARROAD        CLOUDY   -15 -18  84 CALM      30.44S
THIEF RVR FALL   N/A     -5 -10  79 CALM      30.46F
CROOKSTON      CLOUDY    -4  -8  84 CALM      30.49F
FOSSTON        CLOUDY   -15 -18  84 CALM      30.44F
DETROIT LAKES  CLOUDY   -11 -15  84 CALM      30.43F
MOORHEAD       CLOUDY    -8 -15  71 CALM      30.48F
PARK RAPIDS    CLOUDY   -18 -24  74 W5        30.41F WCI -31
$$
MNZ006-009>011-018-025>026-101500-
   North Central Minnesota

CITY           SKY/WX    TMP DP  RH WIND       PRES   REMARKS
BAUDETTE       CLOUDY   -13 -17  82 SW3       30.42S
FLAG ISLAND    CLOUDY    -6  -9  84 NW7       30.41F WCI -20
INTL FALLS     CLOUDY   -14 -18  82 W3        30.41F
WASKISH        CLOUDY    -8  -9  92 NW3       30.43S
BIG FORK       CLOUDY   -15 -20  76 CALM      30.41S
LONGVILLE      CLOUDY     0  -6  78 CALM      30.42F
GRAND RAPIDS   LGT SNOW  -1  -7  75 NW7       30.44R WCI -14
CRANE LAKE     PTCLDY   -11 -15  84 CALM      30.44F
ORR            PTCLDY   -15 -18  84 CALM      30.37S
COOK           PTCLDY   -13 -17  84 CALM      30.40F
$$
MNZ012-019>021-037-101500-
   Northeast Minnesota

CITY           SKY/WX    TMP DP  RH WIND       PRES   REMARKS
DULUTH         CLOUDY     2  -4  76 NW5       30.40R WCI  -8
ELY            CLEAR    -11 -15  84 SW3       30.38F
HIBBING        MOCLDY   -11 -16  78 CALM      30.40F
EVELETH        PTCLDY    -3  -8  77 NW5       30.41S WCI -14
DULUTH HARBOR  PTCLDY     7   0  72 CALM      30.49S
TWO HARBORS    CLEAR     -2  -9  71 CALM      30.41S
SILVER BAY     CLEAR     -2  -8  78 CALM      30.40F
GRAND MARAIS     N/A      4  -2  76 NW5       30.45R WCI  -5
G MARAIS ARPRT CLEAR     -6 -11  77 W5        30.30S WCI -17
$$
MNZ029>031-032-039>041-046>048-054>057-064-101500-
   West Central Minnesota

CITY           SKY/WX    TMP DP  RH WIND       PRES   REMARKS
FERGUS FALLS   CLOUDY    -9 -15  77 CALM      30.51F
WHEATON        CLOUDY    -6  -9  84 N8        30.46F WCI -21
MORRIS         CLOUDY    -6  -9  84 NE7       30.43F WCI -20
ALEXANDRIA     CLOUDY    -6 -10  83 CALM      30.42F
ELBOW LAKE     CLOUDY    -8 -12  84 CALM      30.45F
WADENA         CLOUDY    -8 -11  84 CALM      30.42F
GLENWOOD       CLOUDY    -8 -11  84 CALM      30.43F
APPLETON       CLOUDY    -2  -9  71 CALM      30.47F
BENSON         MOCLDY    -4  -9  77 CALM      30.45F
ORTONVILLE     CLOUDY    -6 -11  77 CALM      30.44F
MADISON        CLOUDY     1  -6  71 CALM      30.45F
WILLMAR        FAIR       0  -4  85 CALM      30.46F
$$
MNZ033>034-036-042>043-049>051-058-059-101500-
   Central Minnesota

CITY           SKY/WX    TMP DP  RH WIND       PRES   REMARKS
ST CLOUD       CLOUDY     0  -4  83 NW5       30.47F WCI -10
PAYNESVILLE    CLOUDY    -2  -5  86 CALM      30.46F
AITKIN         CLOUDY     5  -4  66 CALM      30.42S
PINE RIVER     CLOUDY     0  -6  78 S3        30.45S
BRAINERD       CLOUDY     0  -4  83 SW9       30.45R WCI -15
LONG PRAIRIE   CLOUDY     0  -6  78 CALM      30.45S
LITTLE FALLS   CLOUDY     0  -6  78 CALM      30.47F
LITCHFIELD     CLOUDY     1  -2  85 N3        30.46F
BUFFALO        PTCLDY     2  -2  83 W3        30.50F
MAPLE LAKE     PTCLDY     2  -1  86 NW3       30.49F
HUTCHINSON     CLOUDY     4   0  83 CALM      30.48F
$$
MNZ037-044-045-052-053-101500-
   East Central Minnesota

CITY           SKY/WX    TMP DP  RH WIND       PRES   REMARKS
PRINCETON      CLEAR      1  -2  85 CALM      30.48S
MORA           CLEAR      0  -4  85 W3        30.48S
CAMBRIDGE      CLEAR      3  -4  72 W5        30.47S WCI  -6
RUSH CITY      PTCLDY     3  -2  78 W7        30.48S WCI  -9
MOOSE LAKE     CLOUDY     5  -2  72 NW3       30.44S
HINCKLEY       CLOUDY     9   1  72 CALM      30.45F
CLOQUET        CLOUDY     1  -6  71 NW3       30.42S
MCGREGOR       CLOUDY     3  -2  78 W3        30.44S
$$
MNZ071>073-080-081-089-090-097-098-101500-
   Southwest Minnesota

CITY           SKY/WX    TMP DP  RH WIND       PRES   REMARKS
MONTEVIDEO     CLOUDY     0  -6  78 CALM      30.48F
GRANITE FALLS  CLOUDY     2  -2  81 N3        30.49F
CANBY          CLOUDY     1  -3  82 CALM      30.45F
MARSHALL       FLURRIES   1  -3  83 NE6       30.45F WCI -10
REDWOOD FALLS  CLOUDY     2  -4  76 VRB3      30.48F
OLIVIA         CLOUDY     3   0  85 CALM      30.47S
PIPESTONE      LGT SNOW   7   1  78 E10       30.35F WCI  -8
WINDOM         CLOUDY     5   1  85 MISG      30.42F
WORTHINGTON    LGT SNOW   6   3  87 E9        30.40F FOG     WCI  -8
JACKSON        CLOUDY     7   3  85 E7        30.41F WCI  -5
TRACY          CLOUDY     4   1  88 NE6       30.43F WCI  -7
SLAYTON        FLURRIES   4   1  89 E7        30.39F WCI  -8
$$
MNZ065>067-074>077-082>085-091>093-101500-
   South Central Minnesota

CITY           SKY/WX    TMP DP  RH WIND       PRES   REMARKS
MANKATO        CLOUDY     2  -2  83 NW5       30.48F WCI  -8
NEW ULM          N/A      3  -2  78 CALM      30.48S
ST JAMES       MOCLDY     5   0  78 N5        30.47F WCI  -4
FAIRMONT       FLURRIES   7   2  80 NE6       30.46F WCI  -3
GLENCOE        CLOUDY     4   2  90 CALM      30.48F
FARIBAULT      PTCLDY     3   1  92 CALM      30.47F
OWATONNA       CLOUDY     5   0  78 N3        30.46S
WASECA         CLOUDY     5   1  85 CALM      30.48F
ALBERT LEA     CLOUDY     9   3  78 CALM      30.45S
$$
MNZ078>079-086>088-094>096-101500-
   Southeast Minnesota

CITY           SKY/WX    TMP DP  RH WIND       PRES   REMARKS
ROCHESTER      PTCLDY     4   1  88 NW6       30.44F WCI  -7
RED WING       LGT SNOW   7   1  78 NW3       30.50F
STANTON        CLOUDY     6   1  81 N3        30.47F
DODGE CENTER   CLOUDY     3   0  85 CALM      30.44F
WINONA           N/A     10   5  79 NW5       30.52S WCI   2
AUSTIN         CLOUDY     7   1  78 CALM      30.46S
PRESTON        CLOUDY     5   1  84 NW5       30.46S WCI  -4
$$
ABBREVIATIONS USED IN REMARKS
   TC - TEMPERATURES IN CELSIUS
  WCI - WIND CHILL INDEX
   HX - HEAT INDEX
  VSB - VISIBILITY
$$




USA.gov is the U.S. government's official web portal to all federal, state and local government web resources and services.